Wendover, UT

4:50 PM MDT on August 28, 2016 (GMT -0600)
Wendover

Weather History for KENV - September, 2013

Change the Weather History Date:

Wednesday, September 11, 2013

  Actual Average Record
Temperature  
Mean Temperature 68 °F -  
Max Temperature 75 °F 78 °F 95 °F (1958)
Min Temperature 60 °F 57 °F 41 °F (2010)
Cooling Degree Days 2    
Growing Degree Days 18 (Base 50)    
Moisture  
Dew Point 54 °F    
Average Humidity 60    
Maximum Humidity 83    
Minimum Humidity 36    
Precipitation  
Precipitation 0.09 in - - ()
Sea Level Pressure  
Sea Level Pressure 30.07 in    
Wind  
Wind Speed 7 mph (East)    
Max Wind Speed 34 mph    
Max Gust Speed 44 mph    
Visibility 10 miles    
Events Thunderstorm    
Averages and records for this station are not official NWS values.
T = Trace of Precipitation, MM = Missing Value Source: NWS Daily Summary

Daily Weather History Graph

Daily Weather History Graph

Search for Another Location

Airport or City:

Trip Planner

Search our weather history database for the weather conditions in past years. The results will help you decide how hot, cold, wet, or windy it might be!

Date:

Astronomy

Sep. 11, 2013 Rise Set
Actual Time 7:13 AM MDT 7:51 PM MDT
Civil Twilight 6:45 AM MDT 8:18 PM MDT
Nautical Twilight 6:12 AM MDT 8:51 PM MDT
Astronomical Twilight 5:39 AM MDT 9:24 PM MDT
Moon 1:47 PM MDT (9/11) 11:49 PM MDT (9/11)
Length of Visible Light 13h 33m
Length of Day
12h 38m
Waxing Crescent, 39% of the Moon is Illuminated
Sep 11
Waxing Crescent
Sep 12
First Quarter
Sep 19
Full
Sep 26
Last Quarter
Oct 4
New

Hourly Weather History & Observations

Time (MDT) Temp. Dew Point Humidity Pressure Visibility Wind Dir Wind Speed Gust Speed Precip Events Conditions
12:15 AM 73.4 °F 46.4 °F 38% 30.02 in 10.0 mi ENE 4.6 mph - N/A   Clear
12:35 AM 73.4 °F 46.4 °F 38% 30.02 in 10.0 mi East 6.9 mph - N/A   Clear
12:55 AM 73.4 °F 44.6 °F 36% 30.02 in 10.0 mi NE 9.2 mph - N/A   Clear
1:15 AM 73.4 °F 46.4 °F 38% 30.03 in 10.0 mi East 9.2 mph - N/A   Partly Cloudy
1:35 AM 69.8 °F 51.8 °F 53% 30.03 in 10.0 mi SE 5.8 mph - N/A   Clear
1:55 AM 69.8 °F 51.8 °F 53% 30.03 in 10.0 mi NNE 6.9 mph - N/A   Clear
2:15 AM 69.8 °F 51.8 °F 53% 30.03 in 10.0 mi ENE 5.8 mph - N/A   Clear
2:35 AM 69.8 °F 51.8 °F 53% 30.02 in 10.0 mi ENE 5.8 mph - N/A   Clear
2:55 AM 69.8 °F 51.8 °F 53% 30.02 in 10.0 mi ENE 5.8 mph - N/A   Clear
3:15 AM 69.8 °F 51.8 °F 53% 30.02 in 10.0 mi East 5.8 mph - N/A   Partly Cloudy
3:35 AM 69.8 °F 51.8 °F 53% 30.03 in 10.0 mi East 6.9 mph - N/A   Partly Cloudy
3:55 AM 68.0 °F 51.8 °F 56% 30.03 in 10.0 mi East 6.9 mph - N/A   Clear
4:15 AM 68.0 °F 51.8 °F 56% 30.03 in 10.0 mi NE 6.9 mph - N/A   Clear
4:35 AM 68.0 °F 51.8 °F 56% 30.03 in 10.0 mi ENE 8.1 mph - N/A   Scattered Clouds
4:55 AM 68.0 °F 51.8 °F 56% 30.03 in 10.0 mi ENE 8.1 mph - N/A   Mostly Cloudy
5:15 AM 66.2 °F 51.8 °F 60% 30.03 in 10.0 mi ENE 10.4 mph - N/A   Overcast
5:35 AM 66.2 °F 51.8 °F 60% 30.03 in 10.0 mi ENE 11.5 mph - N/A   Scattered Clouds
5:55 AM 66.2 °F 51.8 °F 60% 30.03 in 10.0 mi ENE 9.2 mph - N/A   Scattered Clouds
6:15 AM 66.2 °F 51.8 °F 60% 30.04 in 10.0 mi ENE 6.9 mph - N/A   Mostly Cloudy
6:35 AM 66.2 °F 51.8 °F 60% 30.04 in 10.0 mi NE 6.9 mph - N/A   Overcast
6:55 AM 66.2 °F 51.8 °F 60% 30.05 in 10.0 mi ENE 6.9 mph - N/A   Scattered Clouds
7:15 AM 66.2 °F 51.8 °F 60% 30.07 in 10.0 mi SE 11.5 mph - N/A   Scattered Clouds
7:35 AM 64.4 °F 51.8 °F 64% 30.08 in 10.0 mi SE 9.2 mph - N/A   Mostly Cloudy
7:55 AM 64.4 °F 53.6 °F 68% 30.08 in 9.0 mi ESE 8.1 mph - N/A   Partly Cloudy
8:15 AM 64.4 °F 53.6 °F 68% 30.08 in 10.0 mi SE 5.8 mph - N/A   Mostly Cloudy
8:35 AM 64.4 °F 53.6 °F 68% 30.09 in 10.0 mi SSE 5.8 mph - N/A   Scattered Clouds
8:55 AM 64.4 °F 53.6 °F 68% 30.10 in 10.0 mi ESE 4.6 mph - N/A   Partly Cloudy
9:15 AM 64.4 °F 55.4 °F 73% 30.10 in 10.0 mi SE 8.1 mph - N/A   Mostly Cloudy
9:35 AM 64.4 °F 55.4 °F 73% 30.11 in 10.0 mi ESE 6.9 mph - N/A   Mostly Cloudy
9:55 AM 64.4 °F 55.4 °F 73% 30.12 in 10.0 mi SSE 11.5 mph - N/A   Mostly Cloudy
10:15 AM 62.6 °F 55.4 °F 77% 30.11 in 10.0 mi South 9.2 mph - N/A   Partly Cloudy
10:35 AM 62.6 °F 55.4 °F 77% 30.11 in 10.0 mi SSW 8.1 mph - N/A   Clear
10:55 AM 62.6 °F 57.2 °F 82% 30.12 in 10.0 mi SSW 4.6 mph - N/A   Clear
11:15 AM 62.6 °F 57.2 °F 82% 30.12 in 10.0 mi SSW 3.5 mph - N/A   Clear
11:35 AM 62.6 °F 57.2 °F 82% 30.12 in 10.0 mi SSW 4.6 mph - 0.01 in   Clear
11:55 AM 64.4 °F 57.2 °F 77% 30.12 in 10.0 mi Calm Calm - 0.01 in   Clear
12:15 PM 64.4 °F 59.0 °F 83% 30.12 in 10.0 mi Calm Calm - N/A   Clear
12:35 PM 66.2 °F 59.0 °F 78% 30.12 in 10.0 mi Calm Calm - N/A   Clear
12:55 PM 68.0 °F 57.2 °F 68% 30.11 in 10.0 mi Calm Calm - N/A   Partly Cloudy
1:15 PM 69.8 °F 55.4 °F 60% 30.11 in 10.0 mi ENE 6.9 mph - N/A   Partly Cloudy
1:35 PM 71.6 °F 55.4 °F 57% 30.10 in 10.0 mi NE 5.8 mph - N/A   Clear
1:55 PM 73.4 °F 55.4 °F 53% 30.10 in 10.0 mi East 11.5 mph - N/A   Clear
2:15 PM 73.4 °F 55.4 °F 53% 30.10 in 10.0 mi East 8.1 mph 16.1 mph N/A   Clear
2:35 PM 73.4 °F 55.4 °F 53% 30.09 in 10.0 mi East 9.2 mph - N/A   Clear
2:55 PM 75.2 °F 55.4 °F 50% 30.09 in 10.0 mi East 11.5 mph 16.1 mph N/A   Clear
3:15 PM 73.4 °F 55.4 °F 53% 30.09 in 10.0 mi East 12.7 mph 16.1 mph N/A   Mostly Cloudy
3:35 PM 73.4 °F 53.6 °F 50% 30.08 in 10.0 mi ENE 5.8 mph - N/A   Scattered Clouds
3:55 PM 75.2 °F 53.6 °F 47% 30.08 in 10.0 mi ESE 6.9 mph - N/A   Scattered Clouds
4:15 PM 75.2 °F 53.6 °F 47% 30.07 in 10.0 mi East 8.1 mph - N/A   Partly Cloudy
4:35 PM 75.2 °F 53.6 °F 47% 30.08 in 10.0 mi ENE 6.9 mph - N/A   Clear
4:55 PM 75.2 °F 53.6 °F 47% 30.07 in 10.0 mi East 10.4 mph - N/A   Partly Cloudy
6:15 PM 73.4 °F 53.6 °F 50% 30.06 in 10.0 mi East 11.5 mph - N/A   Clear
6:35 PM 73.4 °F 51.8 °F 47% 30.06 in 10.0 mi East 10.4 mph - N/A   Clear
6:55 PM 73.4 °F 51.8 °F 47% 30.06 in 10.0 mi East 9.2 mph - N/A   Clear
7:15 PM 71.6 °F 55.4 °F 57% 30.06 in 10.0 mi East 10.4 mph - N/A   Partly Cloudy
7:35 PM 71.6 °F 53.6 °F 53% 30.06 in 10.0 mi ENE 6.9 mph - N/A   Clear
7:55 PM 71.6 °F 51.8 °F 50% 30.06 in 10.0 mi NE 8.1 mph - N/A   Clear
8:15 PM 69.8 °F 53.6 °F 56% 30.06 in 10.0 mi NE 3.5 mph - N/A   Mostly Cloudy
8:35 PM 71.6 °F 53.6 °F 53% 30.07 in 10.0 mi NE 3.5 mph - N/A   Overcast
8:55 PM 71.6 °F 53.6 °F 53% 30.07 in 10.0 mi Calm Calm - N/A   Scattered Clouds
9:15 PM 69.8 °F 53.6 °F 56% 30.08 in 10.0 mi Calm Calm - N/A   Partly Cloudy
9:35 PM 71.6 °F 53.6 °F 53% 30.08 in 10.0 mi NE 5.8 mph - N/A Thunderstorm Thunderstorm
9:55 PM 69.8 °F 53.6 °F 56% 30.07 in 6.0 mi NW 6.9 mph - N/A Thunderstorm Mostly Cloudy
10:15 PM 66.2 °F 57.2 °F 73% 30.08 in 10.0 mi Calm Calm - N/A   Mostly Cloudy
10:35 PM 66.2 °F 57.2 °F 73% 30.08 in 10.0 mi SSW 4.6 mph - N/A   Scattered Clouds
10:55 PM 64.4 °F 57.2 °F 77% 30.07 in 10.0 mi Calm Calm - N/A Thunderstorm Mostly Cloudy
11:15 PM 66.2 °F 57.2 °F 73% 30.11 in 10.0 mi South 15.0 mph 28.8 mph N/A Thunderstorm Overcast
11:35 PM 60.8 °F 55.4 °F 82% 30.13 in 7.0 mi South 34.5 mph 43.7 mph 0.03 in Thunderstorm Mostly Cloudy
11:55 PM 60.8 °F 55.4 °F 82% 30.15 in 5.0 mi SSW 8.1 mph 16.1 mph 0.08 in Thunderstorm Thunderstorm